• în Republica Moldova
  • Lista ţărilor
  • Pe 7 zile
  • Temperatura apei
  • Hartă satelitară
  • Meteo pe hartă
  • Widget-uri
  • user-avatar
    Intrare

    Meteo pe oră la Naftalan

    Astăzi, 26 Februarie, Duminică

    Timp Temperatura Precipitaţii Vânt Presiune Umiditate
    00:00 +8°C° 0 mm 4 m/s 765 mmHg 55%
    01:00 +9°C° 0 mm 3 m/s 764 mmHg 53%
    02:00 +9°C° 0 mm 3 m/s 764 mmHg 52%
    03:00 +9°C° 0 mm 3 m/s 764 mmHg 50%
    04:00 +9°C° 0 mm 3 m/s 764 mmHg 50%
    05:00 +8°C° 0 mm 3 m/s 763 mmHg 50%
    06:00 +8°C° 0 mm 3 m/s 763 mmHg 49%
    07:00 +10°C° 0 mm 4 m/s 764 mmHg 46%
    08:00 +12°C° 0 mm 5 m/s 764 mmHg 42%
    09:00 +14°C° 0 mm 5 m/s 764 mmHg 39%
    10:00 +16°C° 0 mm 5 m/s 765 mmHg 36%
    11:00 +17°C° 0 mm 5 m/s 765 mmHg 33%
    12:00 +20°C° 0 mm 5 m/s 765 mmHg 30%
    13:00 +18°C° 0 mm 7 m/s 766 mmHg 32%
    14:00 +18°C° 0 mm 8 m/s 766 mmHg 34%
    15:00 +18°C° 0 mm 9 m/s 766 mmHg 35%
    16:00 +14°C° 0 mm 10 m/s 768 mmHg 46%
    17:00 +11°C° 0 mm 11 m/s 769 mmHg 56%
    18:00 +6°C° 0 mm 11 m/s 770 mmHg 66%
    19:00 +6°C° 0 mm 10 m/s 771 mmHg 65%
    20:00 +5°C° 0 mm 10 m/s 771 mmHg 65%
    21:00 +5°C° 0 mm 9 m/s 772 mmHg 64%
    22:00 +4°C° 0 mm 8 m/s 773 mmHg 65%
    23:00 +4°C° 0 mm 8 m/s 773 mmHg 65%

    Mâine, 27 Februarie, Luni

    Timp Temperatura Precipitaţii Vânt Presiune Umiditate
    00:00 +4°C° 0 mm 7 m/s 774 mmHg 65%
    01:00 +3°C° 0 mm 6 m/s 774 mmHg 67%
    02:00 +3°C° 0 mm 6 m/s 773 mmHg 69%
    03:00 +3°C° 0 mm 6 m/s 773 mmHg 71%
    04:00 +3°C° 0 mm 5 m/s 773 mmHg 72%
    05:00 +3°C° 0 mm 5 m/s 774 mmHg 74%
    06:00 +3°C° 0 mm 5 m/s 774 mmHg 75%
    07:00 +5°C° 0 mm 5 m/s 774 mmHg 71%
    08:00 +6°C° 0 mm 4 m/s 774 mmHg 68%
    09:00 +6°C° 0 mm 4 m/s 774 mmHg 65%
    10:00 +7°C° 0 mm 4 m/s 773 mmHg 64%
    11:00 +8°C° 0 mm 4 m/s 773 mmHg 63%
    12:00 +9°C° 0 mm 3 m/s 772 mmHg 62%
    13:00 +10°C° 0 mm 3 m/s 772 mmHg 62%
    14:00 +10°C° 0 mm 3 m/s 771 mmHg 63%
    15:00 +10°C° 0 mm 3 m/s 771 mmHg 63%
    16:00 +10°C° 0 mm 3 m/s 771 mmHg 69%
    17:00 +9°C° 0 mm 3 m/s 771 mmHg 75%
    18:00 +8°C° 0 mm 3 m/s 771 mmHg 80%
    19:00 +7°C° 0 mm 3 m/s 771 mmHg 84%
    20:00 +7°C° 0 mm 3 m/s 771 mmHg 87%
    21:00 +5°C° 0 mm 3 m/s 771 mmHg 91%
    22:00 +6°C° 0 mm 2 m/s 770 mmHg 92%
    23:00 +5°C° 0 mm 2 m/s 770 mmHg 93%

    Poimâine, 28 Februarie, Marţi

    Timp Temperatura Precipitaţii Vânt Presiune Umiditate
    00:00 +5°C° 0 mm 2 m/s 770 mmHg 94%
    01:00 +6°C° 0 mm 1 m/s 770 mmHg 95%
    02:00 +5°C° 0 mm 1 m/s 770 mmHg 95%
    03:00 +5°C° 0 mm 1 m/s 769 mmHg 96%
    04:00 +5°C° 0 mm 1 m/s 769 mmHg 96%
    05:00 +5°C° 0 mm 1 m/s 770 mmHg 96%
    06:00 +4°C° 0 mm 1 m/s 770 mmHg 97%
    07:00 +6°C° 0 mm 1 m/s 770 mmHg 91%
    08:00 +8°C° 0 mm 1 m/s 771 mmHg 85%
    09:00 +10°C° 0 mm 1 m/s 771 mmHg 79%
    10:00 +11°C° 0 mm 1 m/s 771 mmHg 74%
    11:00 +12°C° 0 mm 1 m/s 771 mmHg 68%
    12:00 +13°C° 0 mm 1 m/s 770 mmHg 62%
    13:00 +14°C° 0 mm 1 m/s 770 mmHg 60%
    14:00 +14°C° 0 mm 2 m/s 770 mmHg 59%
    15:00 +15°C° 0 mm 2 m/s 770 mmHg 57%
    16:00 +13°C° 0 mm 2 m/s 770 mmHg 64%
    17:00 +12°C° 0 mm 2 m/s 770 mmHg 72%
    18:00 +10°C° 0 mm 3 m/s 770 mmHg 79%
    19:00 +9°C° 0 mm 2 m/s 771 mmHg 81%
    20:00 +8°C° 0 mm 2 m/s 771 mmHg 83%
    21:00 +8°C° 0 mm 2 m/s 772 mmHg 84%
    22:00 +7°C° 0 mm 2 m/s 771 mmHg 85%
    23:00 +7°C° 0 mm 2 m/s 771 mmHg 85%

    1 Martie, Miercuri

    Timp Temperatura Precipitaţii Vânt Presiune Umiditate
    00:00 +7°C° 0 mm 2 m/s 771 mmHg 85%
    01:00 +7°C° 0 mm 1 m/s 771 mmHg 86%
    02:00 +7°C° 0 mm 1 m/s 771 mmHg 86%
    03:00 +7°C° 0 mm 1 m/s 771 mmHg 87%
    04:00 +5°C° 0 mm 2 m/s 771 mmHg 87%
    05:00 +5°C° 0 mm 2 m/s 771 mmHg 87%
    06:00 +5°C° 0 mm 2 m/s 772 mmHg 87%
    07:00 +7°C° 0 mm 2 m/s 772 mmHg 79%
    08:00 +9°C° 0 mm 2 m/s 772 mmHg 72%
    09:00 +12°C° 0 mm 2 m/s 772 mmHg 64%
    10:00 +12°C° 0 mm 3 m/s 772 mmHg 60%
    11:00 +14°C° 0 mm 3 m/s 771 mmHg 56%
    12:00 +16°C° 0 mm 3 m/s 771 mmHg 52%
    13:00 +15°C° 0 mm 4 m/s 770 mmHg 53%
    14:00 +15°C° 0 mm 4 m/s 770 mmHg 53%
    15:00 +15°C° 0 mm 4 m/s 769 mmHg 54%
    16:00 +13°C° 0 mm 4 m/s 769 mmHg 60%
    17:00 +12°C° 0 mm 4 m/s 769 mmHg 66%
    18:00 +10°C° 0 mm 4 m/s 769 mmHg 72%
    19:00 +10°C° 0 mm 4 m/s 769 mmHg 75%
    20:00 +8°C° 0 mm 4 m/s 769 mmHg 78%
    21:00 +7°C° 0 mm 4 m/s 769 mmHg 81%
    22:00 +7°C° 0 mm 4 m/s 769 mmHg 83%
    23:00 +7°C° 0 mm 4 m/s 768 mmHg 85%

    2 Martie, Joi

    Timp Temperatura Precipitaţii Vânt Presiune Umiditate
    00:00 +7°C° 0 mm 3 m/s 768 mmHg 88%
    01:00 +7°C° 0 mm 3 m/s 768 mmHg 88%
    02:00 +7°C° 0 mm 3 m/s 767 mmHg 89%
    03:00 +5°C° 0 mm 3 m/s 767 mmHg 90%
    04:00 +6°C° 0 mm 2 m/s 767 mmHg 90%
    05:00 +6°C° 0 mm 2 m/s 767 mmHg 90%
    06:00 +5°C° 0 mm 2 m/s 767 mmHg 91%
    07:00 +8°C° 0 mm 1 m/s 767 mmHg 83%
    08:00 +10°C° 0 mm 1 m/s 767 mmHg 76%
    09:00 +12°C° 0 mm 1 m/s 766 mmHg 69%
    10:00 +13°C° 0 mm 1 m/s 766 mmHg 63%
    11:00 +15°C° 0 mm 2 m/s 765 mmHg 57%
    12:00 +16°C° 0 mm 2 m/s 765 mmHg 52%
    13:00 +16°C° 0 mm 2 m/s 764 mmHg 51%
    14:00 +17°C° 0 mm 3 m/s 764 mmHg 51%
    15:00 +17°C° 0 mm 4 m/s 763 mmHg 50%
    16:00 +14°C° 0 mm 3 m/s 763 mmHg 56%
    17:00 +13°C° 0 mm 3 m/s 763 mmHg 63%
    18:00 +11°C° 0 mm 3 m/s 763 mmHg 69%
    19:00 +11°C° 0 mm 3 m/s 763 mmHg 71%
    20:00 +10°C° 0 mm 2 m/s 763 mmHg 73%
    21:00 +10°C° 0 mm 2 m/s 763 mmHg 76%
    22:00 +11°C° 0 mm 1 m/s 763 mmHg 77%
    23:00 +10°C° 0 mm 1 m/s 762 mmHg 77%

    3 Martie, Vineri

    Timp Temperatura Precipitaţii Vânt Presiune Umiditate
    00:00 +10°C° 0 mm 1 m/s 762 mmHg 78%
    01:00 +10°C° 0 mm 1 m/s 762 mmHg 79%
    02:00 +9°C° 0 mm 1 m/s 762 mmHg 81%
    03:00 +8°C° 0 mm 0 m/s 761 mmHg 82%
    04:00 +9°C° 0 mm 1 m/s 762 mmHg 83%
    05:00 +8°C° 0 mm 1 m/s 762 mmHg 85%
    06:00 +8°C° 0 mm 1 m/s 762 mmHg 86%
    07:00 +10°C° 0 mm 1 m/s 762 mmHg 78%
    08:00 +12°C° 0 mm 1 m/s 762 mmHg 70%
    09:00 +14°C° 0 mm 1 m/s 762 mmHg 62%
    10:00 +15°C° 0 mm 1 m/s 762 mmHg 57%
    11:00 +18°C° 0 mm 1 m/s 762 mmHg 53%
    12:00 +19°C° 0 mm 1 m/s 761 mmHg 48%
    13:00 +18°C° 0 mm 2 m/s 761 mmHg 48%
    14:00 +19°C° 0 mm 2 m/s 761 mmHg 47%
    15:00 +19°C° 0 mm 2 m/s 761 mmHg 46%
    16:00 +18°C° 0 mm 2 m/s 761 mmHg 52%
    17:00 +16°C° 0 mm 2 m/s 761 mmHg 58%
    18:00 +15°C° 0 mm 2 m/s 762 mmHg 64%
    19:00 +14°C° 0 mm 2 m/s 762 mmHg 67%
    20:00 +14°C° 0 mm 1 m/s 762 mmHg 69%
    21:00 +13°C° 0 mm 1 m/s 763 mmHg 72%
    22:00 +13°C° 0 mm 2 m/s 763 mmHg 72%
    23:00 +12°C° 0 mm 3 m/s 764 mmHg 72%
    Arată mai mult